Regional Weather Roundup
Issued by NWS

Home | Current Version | Previous Version | Text Only | Print | Product List | Glossary On
Versions: 1 2 3 4 5 6 7 8 9 10 11 12 13 14 15 16 17 18 19 20 21 22 23 24 25 26 27 28 29 30 31 32 33 34 35 36 37 38 39 40 41 42 43 44 45 46 47 48 49 50
000
ASUS43 KDTX 181510
RWRMI
MICHIGAN HOURLY REGIONAL WEATHER ROUNDUP
NATIONAL WEATHER SERVICE DETROIT/PONTIAC MI
1000 AM EST SAT NOV 18 2017

NOTE: "FAIR" INDICATES FEW OR NO CLOUDS BELOW 12,000 FEET WITH NO
SIGNIFICANT WEATHER AND/OR OBSTRUCTION TO VISIBILITY.

MIZ047>049-052>055-059>063-066>070-074>076-081>083-181600-
SOUTHEAST LOWER MICHIGAN

CITY           SKY/WX    TMP DP  RH WIND       PRES   REMARKS
ADRIAN         CLOUDY    45  44  97 CALM      29.45F FOG
ALMA           CLOUDY    42  42 100 NW5       29.48F FOG
ANN ARBOR      FOG       44  44 100 CALM      29.46F VSB 1/2
BAD AXE        CLOUDY    42  42  99 SW3       29.50R FOG
CARO           CLOUDY    43  42  97 CALM      29.47S FOG
DETROIT CITY   CLOUDY    50  45  83 CALM      29.48F HAZE
DETROIT        FOG       46  44  93 CALM      29.47F VSB 3/4
FLINT          CLOUDY    44  43  96 SW3       29.48F FOG
GROSSE ILE     CLOUDY    45  44  98 S3        29.46F FOG
HILLSDALE      FOG       43  43 100 SE3       29.42F VSB 1/4
HOWELL         FOG       43  43 100 CALM      29.45F VSB 3/4

CITY           SKY/WX    TMP DP  RH WIND       PRES   REMARKS
JACKSON        FOG       45  43  93 E5        29.44F VSB 1
LAMBERTVILLE   CLOUDY    49  47  92 S3        29.46F FOG
LANSING        FOG       44  44 100 N3        29.45F VSB 3/4
LAPEER         CLOUDY    44  43  98 SW6       29.48F FOG
MASON          FOG       45  44  95 CALM      29.44F VSB 1
MONROE         CLOUDY    47  45  93 S5        29.46F FOG
MT. CLEMENS    CLOUDY    45  45 100 S2        29.47S FOG
PONTIAC        FOG       43  43 100 CALM      29.46F VSB 1/2
PORT HOPE        N/A     43  40  89 W3        29.47F
PORT HURON     CLOUDY    45  41  87 CALM      29.48F FOG
TRI CITIES     CLOUDY    44  44 100 W3        29.48F FOG
MIDLAND        CLOUDY    43  43  99 N5        29.47F FOG
TROY           CLOUDY    46  44  94 CALM      29.49F FOG
SAGINAW HB     CLOUDY    43  43 100 CALM      29.48S FOG
$$
MIZ043>046-050>051-056>058-064>065-071>073-077>080-181600-
SOUTHWEST LOWER MICHIGAN

CITY           SKY/WX    TMP DP  RH WIND       PRES   REMARKS
BATTLE CREEK   FOG       44  44 100 NE5       29.44F VSB 1/4
BENTON HARBOR  LGT RAIN  45  42  89 VRB5      29.43F FOG
BIG RAPIDS     CLOUDY    39  37  93 N5        29.47F
COLDWATER      RAIN      45  45 100 CALM      29.43F
FREMONT        CLOUDY    40  40 100 N5        29.47F
HOLLAND        LGT RAIN  42  40  92 N7        29.46F FOG
GRAND RAPIDS   DRZL/FOG  43  43 100 NE6       29.45F VSB 1
IONIA          CLOUDY    43  43  99 N5        29.44F FOG
KALAMAZOO      LGT RAIN  45  42  89 N5        29.44F VSB 1/4
LUDINGTON      LGT RAIN  40  38  91 CALM      29.51S
MARSHALL       FOG       44  43  97 CALM      29.43F VSB 1/2
MOUNT PLEASANT CLOUDY    42  40  93 N5        29.46F
MUSKEGON       CLOUDY    42  38  85 N6        29.50F
SOUTH HAVEN    LGT RAIN  43  42  96 NE12      29.42F
$$
MIZ016>042-181600-
NORTHERN LOWER MICHIGAN

CITY           SKY/WX    TMP DP  RH WIND       PRES   REMARKS
ALPENA         CLOUDY    37  37 100 CALM      29.51R
BEAVER ISLAND  CLOUDY    38  36  90 NE9       29.54F WCI  32
BELLAIRE       CLOUDY    39  39 100 N5        29.53R
CADILLAC       LGT RAIN  38  38  99 N3        29.48R
CHARLEVOIX     CLOUDY    39  38  96 N12G18    29.56R WCI  32
FRANKFORT      CLOUDY    42  41  95 N7G21     29.53R FOG
GAYLORD        FOG       34  33  96 NE7       29.49R VSB 1/4 WCI  28
GRAYLING       CLOUDY    37  35  91 N5        29.49S WCI  34
HARBOR SPRINGS CLOUDY    37  36  96 NE6       29.53R WCI  32
HOUGHTON LAKE  CLOUDY    37  36  96 N7        29.47F WCI  32
MANISTEE       LGT RAIN  41  39  93 NW6       29.51F FOG
OSCODA         CLOUDY    39  38  97 N5        29.48F FOG
PELLSTON       CLOUDY    36  35  96 N9        29.52F WCI  29
ROGERS CITY    CLOUDY    38  36  92 N9        29.52S WCI  32
TRAVERSE CITY  CLOUDY    42  39  89 NE9       29.50F
$$
MIZ007>008-015-181600-
EASTERN UPPER MICHIGAN

CITY           SKY/WX    TMP DP  RH WIND       PRES   REMARKS
KINROSS        CLOUDY    35  34  96 N7        29.52F WCI  29
MACKINAC ISLAN CLOUDY    37  37 100 N10G17    29.52S WCI  30
NEWBERRY       CLOUDY    33  32  96 NW5       29.54S WCI  29
S. S. MARIE    CLOUDY    37  33  85 N7        29.51F WCI  32
MUNISING         N/A     41  38  89 N13       29.57F
$$
MIZ004>006-011>014-085-181600-
CENTRAL UPPER MICHIGAN

CITY           SKY/WX    TMP DP  RH WIND       PRES   REMARKS
MANISTIQUE     CLOUDY    37  32  84 N9        29.55S WCI  30
ESCANABA       CLOUDY    39  36  89 N6        29.58S WCI  35
MENOMINEE      CLOUDY    37  35  92 N7        29.61S FOG     WCI  32
SAWYER-GWINN   CLOUDY    34  32  93 N10       29.59F WCI  26
$$
MIZ001>003-009>011-084-181600-
WESTERN UPPER MICHIGAN

CITY           SKY/WX    TMP DP  RH WIND       PRES   REMARKS
IRON MOUNTAIN  CLOUDY    35  31  85 NW8       29.60S WCI  29
HOUGHTON       CLOUDY    35  29  78 NW6       29.65R WCI  30
COPPER HARBOR    N/A     37  32  82 NE20G25   29.65R WCI  27
IRONWOOD       CLOUDY   N/A N/A N/A NW7       29.70F
$$

ABBREVIATIONS USED IN REMARKS
   TC - TEMPERATURE IN CELSIUS
  WCI - WIND CHILL INDEX
   HX - HEAT INDEX
  VSB - VISIBILITY




USA.gov is the U.S. government's official web portal to all federal, state and local government web resources and services.